Location: Vinland
(47.7731°N, 122.6974°W)
Time: 02:29:52
(UTC+00:00)

Transit 4A - Pass Details

Date: 05 April 2023
Orbit: 864 x 979 km, 66.8° (Epoch: 29 May)

Event Time Altitude Azimuth Distance (km) Brightness Sun altitude
Exits shadow 12:40:14 11° 224° (SW) 2,462 9.6 -10.7°
Maximum altitude 12:45:53 69° 307° (NW) 943 7.9 -9.8°
Drops below altitude 10° 12:51:51 10° 31° (NNE) 2,586 11.1 -8.9°
Sets 12:54:26 0° 34° (NE) 3,548 11.9 -8.5°
